This is the latest recevied weather packets stored in our database for station/object KN6RO-14. If no packets are shown the sender has not sent any weather packets the latest 10 day(s).
| Time | Temp. | Humidity | Pressure | Rain* | Wind** | Luminosity | Snow |
|---|---|---|---|---|---|---|---|
| 1777717457 | 12.22° C | 65% | 1010.7 hPa | 0 mm | - | - | - |
| 1777715657 | 12.22° C | 65% | 1011.2 hPa | 0 mm | - | - | - |
| 1777713857 | 12.22° C | 64% | 1010.8 hPa | 0 mm | - | - | - |
| 1777712057 | 12.22° C | 64% | 1010.7 hPa | 0 mm | - | - | - |
| 1777710257 | 12.22° C | 63% | 1010.6 hPa | 0 mm | - | - | - |
| 1777708457 | 12.22° C | 64% | 1010.8 hPa | 0 mm | - | - | - |
| 1777706657 | 12.78° C | 64% | 1011.1 hPa | 0 mm | - | - | - |
| 1777704857 | 12.78° C | 64% | 1011.4 hPa | 0 mm | - | - | - |
| 1777703057 | 13.33° C | 64% | 1011.6 hPa | 0 mm | - | - | - |
| 1777701257 | 13.33° C | 61% | 1011.9 hPa | 0 mm | - | - | - |
| 1777699457 | 13.89° C | 60% | 1012.1 hPa | 0 mm | - | - | - |
| 1777697657 | 14.44° C | 55% | 1012 hPa | 0 mm | - | - | - |
| 1777695858 | 14.44° C | 55% | 1012.6 hPa | 0 mm | - | - | - |
| 1777694058 | 14.44° C | 56% | 1013 hPa | 0 mm | - | - | - |
| 1777692258 | 14.44° C | 56% | 1013.1 hPa | 0 mm | - | - | - |
| 1777690458 | 14.44° C | 60% | 1013.2 hPa | 0 mm | - | - | - |
| 1777688658 | 15° C | 54% | 1013.1 hPa | 0 mm | - | - | - |
| 1777686858 | 15° C | 53% | 1013.1 hPa | 0 mm | - | - | - |
| 1777685058 | 15° C | 55% | 1012.6 hPa | 0 mm | - | - | - |
| 1777683258 | 14.44° C | 58% | 1012.2 hPa | 0 mm | - | - | - |
| 1777681458 | 14.44° C | 58% | 1012.1 hPa | 0 mm | - | - | - |
| 1777679658 | 14.44° C | 64% | 1011.9 hPa | 0 mm | - | - | - |
| 1777677858 | 15° C | 66% | 1012.1 hPa | 0 mm | - | - | - |
| 1777676058 | 15.56° C | 67% | 1011.6 hPa | 0 mm | - | - | - |
| 1777674259 | 15.56° C | 67% | 1011.2 hPa | 0 mm | - | - | - |
* Rain latest hour (hover to see other rain measurements)
** Current wind speed in m/s (hover to see current wind gust speed)